PY2UEP-1 Weather Reports


time (UTC)temp
F
wind
direction
speed
knots
gust
knots
rain 1hr
in
rain 24hr
in
rain mn
in
humidity
%
barometer
mb
20260509161954 83 324 7.0 15.6 0.00 0.00 0.00 49 1016.0
20260509161454 83 324 7.8 18.2 0.00 0.00 0.00 49 1016.2
20260509160954 83 332 5.2 13.9 0.00 0.00 0.00 51 1016.2
20260509160454 83 341 5.2 13.9 0.00 0.00 0.00 53 1016.2
20260509155956 82 329 5.2 13.9 0.00 0.00 0.00 54 1016.2
20260509155454 83 336 5.2 12.2 0.00 0.00 0.00 54 1016.4
20260509154954 83 334 4.3 10.4 0.00 0.00 0.00 56 1016.4
20260509154454 82 338 2.6 7.8 0.00 0.00 0.00 57 1016.5
20260509153954 82 348 3.5 9.6 0.00 0.00 0.00 57 1016.6
20260509153454 82 335 3.5 7.0 0.00 0.00 0.00 57 1016.6
20260509152954 83 356 3.5 7.8 0.00 0.00 0.00 55 1016.6
20260509152454 83 329 6.1 13.0 0.00 0.00 0.00 54 1016.8
20260509151954 83 320 7.8 13.9 0.00 0.00 0.00 54 1016.9
20260509151454 82 312 5.2 12.2 0.00 0.00 0.00 55 1016.9
20260509150954 82 332 6.1 14.8 0.00 0.00 0.00 55 1017.1
20260509150454 82 316 7.0 15.6 0.00 0.00 0.00 55 1016.8
20260509145954 82 335 6.1 15.6 0.00 0.00 0.00 56 1017.1
20260509145454 82 348 2.6 8.7 0.00 0.00 0.00 58 1017.1
20260509144954 81 332 3.5 8.7 0.00 0.00 0.00 59 1017.2
20260509144454 81 325 4.3 8.7 0.00 0.00 0.00 60 1017.2
20260509143954 80 332 3.5 9.6 0.00 0.00 0.00 60 1017.5
20260509143454 80 344 2.6 7.0 0.00 0.00 0.00 60 1017.5
20260509142954 80 349 3.5 9.6 0.00 0.00 0.00 61 1017.6
20260509142454 80 343 3.5 10.4 0.00 0.00 0.00 62 1017.6
20260509141954 79 333 4.3 8.7 0.00 0.00 0.00 62 1017.7
20260509141454 79 329 3.5 8.7 0.00 0.00 0.00 62 1017.6
20260509140954 79 336 4.3 10.4 0.00 0.00 0.00 61 1017.8
20260509140454 79 336 4.3 9.6 0.00 0.00 0.00 62 1017.7
20260509135954 79 338 5.2 11.3 0.00 0.00 0.00 61 1017.8
20260509135454 80 329 6.1 17.4 0.00 0.00 0.00 60 1017.7
20260509134954 80 331 4.3 8.7 0.00 0.00 0.00 61 1017.7
20260509134454 79 332 4.3 11.3 0.00 0.00 0.00 62 1017.6
20260509133954 78 336 4.3 13.9 0.00 0.00 0.00 63 1017.8
20260509133454 78 333 4.3 13.0 0.00 0.00 0.00 63 1017.9
20260509132954 78 339 4.3 11.3 0.00 0.00 0.00 64 1017.8
20260509132454 78 331 5.2 11.3 0.00 0.00 0.00 64 1018.0
20260509131954 78 322 6.1 15.6 0.00 0.00 0.00 63 1018.1
20260509131454 78 341 4.3 11.3 0.00 0.00 0.00 64 1018.0
20260509130954 78 333 3.5 9.6 0.00 0.00 0.00 64 1018.0
20260509130454 77 343 3.5 13.0 0.00 0.00 0.00 66 1018.0
20260509125954 76 357 3.5 7.8 0.00 0.00 0.00 68 1017.9
20260509125454 76 8 2.6 7.0 0.00 0.00 0.00 69 1017.8
20260509124954 75 356 2.6 7.0 0.00 0.00 0.00 70 1017.9
20260509124454 75 353 3.5 9.6 0.00 0.00 0.00 71 1017.8
20260509123954 74 11 2.6 7.0 0.00 0.00 0.00 73 1017.8
20260509123454 73 10 3.5 6.1 0.00 0.00 0.00 74 1017.9
20260509122954 73 2 3.5 7.0 0.00 0.00 0.00 75 1018.0
20260509122454 72 7 2.6 6.1 0.00 0.00 0.00 76 1017.8
20260509121954 72 13 3.5 8.7 0.00 0.00 0.00 77 1017.9
20260509121454 72 10 2.6 5.2 0.00 0.00 0.00 78 1017.9
20260509120954 72 14 2.6 6.1 0.00 0.00 0.00 78 1017.7
20260509120454 71 15 2.6 6.1 0.00 0.00 0.00 78 1017.8
20260509115954 72 14 2.6 4.3 0.00 0.00 0.00 78 1017.7
20260509115454 72 17 2.6 5.2 0.00 0.00 0.00 78 1017.7
20260509114954 71 20 2.6 7.8 0.00 0.00 0.00 78 1017.6
20260509114454 71 12 2.6 5.2 0.00 0.00 0.00 80 1017.6
20260509113954 71 22 2.6 5.2 0.00 0.00 0.00 81 1017.2
20260509113454 70 19 2.6 5.2 0.00 0.00 0.00 82 1017.2
20260509112954 70 15 2.6 5.2 0.00 0.00 0.00 82 1017.2
20260509112454 70 13 2.6 6.1 0.00 0.00 0.00 83 1017.4
20260509111954 69 25 2.6 7.8 0.00 0.00 0.00 84 1017.0
20260509111454 69 19 2.6 7.0 0.00 0.00 0.00 84 1017.0
20260509110954 69 15 2.6 4.3 0.00 0.00 0.00 85 1016.9
20260509110454 69 26 2.6 6.1 0.00 0.00 0.00 86 1016.7
20260509105954 68 8 1.7 4.3 0.00 0.00 0.00 87 1016.7
20260509105454 68 26 3.5 7.0 0.00 0.00 0.00 87 1016.6
20260509104954 68 33 3.5 7.0 0.00 0.00 0.00 87 1016.6
20260509104454 68 28 3.5 6.1 0.00 0.00 0.00 87 1016.6
20260509103954 68 28 3.5 6.1 0.00 0.00 0.00 87 1016.6
20260509103454 68 30 4.3 7.8 0.00 0.00 0.00 88 1016.4
20260509102954 68 28 3.5 6.1 0.00 0.00 0.00 88 1016.3
20260509102454 67 28 3.5 7.0 0.00 0.00 0.00 88 1016.2
20260509101954 67 32 4.3 6.1 0.00 0.00 0.00 89 1016.3
20260509101454 67 25 3.5 6.1 0.00 0.00 0.00 89 1016.2
20260509100954 67 36 2.6 5.2 0.00 0.00 0.00 90 1016.1
20260509100454 67 29 2.6 4.3 0.00 0.00 0.00 90 1015.8
20260509095954 67 3 0.9 2.6 0.00 0.00 0.00 90 1015.8
20260509095454 67 23 0.9 3.5 0.00 0.00 0.00 90 1015.6
20260509094954 67 360 0.0 1.7 0.00 0.00 0.00 91 1015.5
20260509094454 67 351 0.9 1.7 0.00 0.00 0.00 91 1015.5
20260509093954 67 24 1.7 4.3 0.00 0.00 0.00 91 1015.3
20260509093454 67 9 0.9 1.7 0.00 0.00 0.00 91 1015.2
20260509092954 67 27 2.6 4.3 0.00 0.00 0.00 91 1015.2
20260509092454 67 32 2.6 4.3 0.00 0.00 0.00 91 1015.2
20260509091954 67 28 3.5 5.2 0.00 0.00 0.00 91 1015.1
20260509091454 67 30 3.5 4.3 0.00 0.00 0.00 91 1015.0
20260509090954 67 31 2.6 4.3 0.00 0.00 0.00 91 1015.0
20260509090454 67 34 2.6 5.2 0.00 0.00 0.00 90 1014.8
20260509085954 67 37 2.6 7.0 0.00 0.00 0.00 90 1014.8
20260509085454 67 34 2.6 4.3 0.00 0.00 0.00 90 1014.8
20260509084954 67 36 1.7 3.5 0.00 0.00 0.00 90 1015.0
20260509084454 67 42 1.7 2.6 0.00 0.00 0.00 90 1014.8
20260509083955 67 48 0.9 2.6 0.00 0.00 0.00 90 1014.7
20260509083454 67 57 0.9 2.6 0.00 0.00 0.00 90 1014.7
20260509082954 67 59 1.7 2.6 0.00 0.00 0.00 90 1014.6
20260509082454 67 47 1.7 2.6 0.00 0.00 0.00 90 1014.6
20260509081954 67 68 0.9 1.7 0.00 0.00 0.00 90 1014.3
20260509081454 67 69 1.7 2.6 0.00 0.00 0.00 90 1014.3
20260509080954 67 64 1.7 2.6 0.00 0.00 0.00 90 1014.2
20260509080454 67 64 0.9 1.7 0.00 0.00 0.00 89 1014.2
20260509075954 68 64 1.7 2.6 0.00 0.00 0.00 88 1014.2
20260509075454 68 124 0.9 1.7 0.00 0.00 0.00 88 1014.2
20260509074954 68 203 1.7 4.3 0.00 0.00 0.00 88 1014.1
20260509074454 68 204 1.7 5.2 0.00 0.00 0.00 88 1014.2
20260509073954 68 195 2.6 4.3 0.00 0.00 0.00 88 1014.1
20260509073454 68 201 2.6 5.2 0.00 0.00 0.00 88 1014.3
20260509072954 68 197 2.6 5.2 0.00 0.00 0.00 87 1014.7
20260509072454 68 208 3.5 7.8 0.00 0.00 0.00 87 1014.8
20260509071954 68 219 4.3 7.8 0.00 0.00 0.00 86 1014.8
20260509071454 68 210 3.5 9.6 0.00 0.00 0.00 86 1014.8
20260509070954 69 210 3.5 8.7 0.00 0.00 0.00 85 1015.0
20260509070454 69 208 3.5 7.8 0.00 0.00 0.00 85 1014.8
20260509065954 69 220 5.2 11.3 0.00 0.00 0.00 85 1015.0
20260509065454 69 222 4.3 9.6 0.00 0.00 0.00 85 1015.0
20260509064954 68 214 4.3 8.7 0.00 0.00 0.00 85 1014.9
20260509064454 68 220 3.5 6.1 0.00 0.00 0.00 85 1014.9
20260509063953 68 202 2.6 6.1 0.00 0.00 0.00 85 1014.9
20260509063453 69 216 3.5 6.1 0.00 0.00 0.00 85 1014.9
20260509062954 69 213 3.5 6.1 0.00 0.00 0.00 85 1014.9
20260509062453 69 207 2.6 5.2 0.00 0.00 0.00 84 1014.9
20260509061953 69 226 3.5 7.0 0.00 0.00 0.00 84 1015.0
20260509061454 69 220 3.5 5.2 0.00 0.00 0.00 84 1014.9
20260509060953 69 206 2.6 5.2 0.00 0.00 0.00 83 1014.6
20260509060453 69 210 1.7 5.2 0.00 0.00 0.00 83 1014.8
20260509055954 69 206 3.5 7.8 0.00 0.00 0.00 83 1014.9
20260509055453 69 232 3.5 6.1 0.00 0.00 0.00 84 1015.3
20260509054953 69 223 5.2 10.4 0.00 0.00 0.00 84 1015.3
20260509054454 69 230 4.3 7.0 0.00 0.00 0.00 84 1015.0
20260509053953 69 228 4.3 7.8 0.00 0.00 0.00 84 1015.1
20260509053453 69 222 4.3 7.8 0.00 0.00 0.00 83 1015.1
20260509052954 69 215 3.5 7.0 0.00 0.00 0.00 83 1015.0
20260509052453 69 211 3.5 6.1 0.00 0.00 0.00 83 1014.9
20260509051953 69 199 3.5 5.2 0.00 0.00 0.00 84 1014.8
20260509051454 69 204 3.5 6.1 0.00 0.00 0.00 83 1014.8
20260509050953 69 215 3.5 7.0 0.00 0.00 0.00 83 1015.0
20260509050453 69 216 2.6 5.2 0.00 0.00 0.00 83 1015.0
20260509045954 69 208 2.6 6.1 0.00 0.00 0.00 83 1015.0
20260509045453 70 212 2.6 6.1 0.00 0.00 0.00 83 1015.0
20260509044953 70 215 2.6 6.1 0.00 0.00 0.00 82 1015.0
20260509044453 70 215 3.5 6.1 0.00 0.00 0.00 81 1015.0
20260509043953 70 212 2.6 6.1 0.00 0.00 0.00 80 1015.0
20260509043453 70 220 5.2 9.6 0.00 0.00 0.00 80 1015.0
20260509042953 71 224 4.3 9.6 0.00 0.00 0.00 78 1014.8
20260509042453 71 232 4.3 8.7 0.00 0.00 0.00 75 1015.0
20260509041953 71 205 2.6 6.1 0.00 0.00 0.00 72 1014.8
20260509041453 72 220 3.5 8.7 0.00 0.00 0.00 71 1014.8
20260509040953 72 226 4.3 7.0 0.00 0.00 0.00 70 1015.0
20260509040456 72 240 4.3 7.8 0.00 0.00 0.00 69 1015.0
20260509035954 72 238 3.5 8.7 0.00 0.00 0.00 68 1014.8
20260509035453 73 251 3.5 8.7 0.00 0.00 0.00 67 1015.0
20260509034953 73 260 3.5 7.8 0.00 0.00 0.00 67 1014.8
20260509034453 73 244 3.5 7.8 0.00 0.00 0.00 66 1015.0
20260509033953 73 242 6.1 10.4 0.00 0.00 0.00 65 1014.7
20260509033453 73 242 6.1 10.4 0.00 0.00 0.00 65 1014.7
20260509032954 74 238 3.5 7.0 0.00 0.00 0.00 65 1014.7
20260509032453 74 273 2.6 4.3 0.00 0.00 0.00 64 1014.6
20260509031953 74 309 5.2 9.6 0.00 0.00 0.00 64 1014.4
20260509031453 73 327 2.6 6.1 0.00 0.00 0.00 66 1014.2
20260509030953 73 332 1.7 5.2 0.00 0.00 0.00 66 1014.2
20260509030453 73 332 1.7 7.0 0.00 0.00 0.00 66 1014.2
20260509025953 72 329 1.7 4.3 0.00 0.00 0.00 66 1014.2
20260509025453 72 341 2.6 6.1 0.00 0.00 0.00 67 1014.2
20260509024953 72 343 1.7 8.7 0.00 0.00 0.00 67 1014.2
20260509024453 72 336 2.6 7.8 0.00 0.00 0.00 68 1014.2
20260509023953 72 332 1.7 4.3 0.00 0.00 0.00 67 1014.4
20260509023453 72 328 1.7 3.5 0.00 0.00 0.00 67 1014.4
20260509022953 72 338 1.7 2.6 0.00 0.00 0.00 68 1014.4
20260509022453 72 348 1.7 4.3 0.00 0.00 0.00 68 1014.4
20260509021953 72 346 1.7 3.5 0.00 0.00 0.00 67 1014.4
20260509021453 72 325 2.6 4.3 0.00 0.00 0.00 67 1014.6
20260509020953 72 324 1.7 2.6 0.00 0.00 0.00 67 1014.4
20260509020453 72 345 1.7 2.6 0.00 0.00 0.00 67 1014.4
20260509015953 72 350 1.7 2.6 0.00 0.00 0.00 67 1014.4
20260509015453 72 343 1.7 5.2 0.00 0.00 0.00 66 1014.4
20260509014953 72 334 1.7 4.3 0.00 0.00 0.00 66 1014.6
20260509014453 72 353 1.7 4.3 0.00 0.00 0.00 66 1014.4
20260509013953 72 332 1.7 3.5 0.00 0.00 0.00 66 1014.6
20260509013453 73 331 0.9 2.6 0.00 0.00 0.00 65 1014.6
20260509012953 73 359 0.9 2.6 0.00 0.00 0.00 65 1014.4
20260509012453 73 7 0.9 3.5 0.00 0.00 0.00 64 1014.4
20260509011953 74 352 2.6 5.2 0.00 0.00 0.00 63 1014.4
20260509011453 74 346 1.7 5.2 0.00 0.00 0.00 64 1014.4
20260509010953 73 351 1.7 3.5 0.00 0.00 0.00 64 1014.4
20260509010454 73 337 1.7 4.3 0.00 0.00 0.00 64 1014.3
20260509005953 73 356 1.7 4.3 0.00 0.00 0.00 64 1014.2
20260509005453 73 340 1.7 2.6 0.00 0.00 0.00 64 1014.2
20260509004953 73 337 1.7 3.5 0.00 0.00 0.00 64 1014.2
20260509004453 73 340 1.7 4.3 0.00 0.00 0.00 64 1014.2
20260509003954 73 331 1.7 3.5 0.00 0.00 0.00 65 1014.0
20260509003453 73 334 1.7 3.5 0.00 0.00 0.00 65 1013.9
20260509002953 73 351 1.7 2.6 0.00 0.00 0.00 65 1013.8
20260509002453 73 4 1.7 2.6 0.00 0.00 0.00 64 1013.7
20260509001953 73 4 1.7 2.6 0.00 0.00 0.00 64 1013.7
20260509001453 73 359 1.7 3.5 0.00 0.00 0.00 63 1013.8
20260509000953 74 6 1.7 4.3 0.00 0.00 0.00 62 1013.7
20260509000455 74 2 1.7 4.3 0.00 0.00 0.00 62 1013.5
20260508235953 75 1 2.6 6.1 0.00 0.00 0.00 61 1013.6
20260508235453 75 0 1.7 4.3 0.00 0.00 0.00 59 1013.6
20260508234953 75 359 1.7 4.3 0.00 0.00 0.00 59 1013.6
20260508234453 75 348 1.7 7.0 0.00 0.00 0.00 59 1013.5
20260508233953 75 351 2.6 5.2 0.00 0.00 0.00 59 1013.5
20260508233453 75 340 1.7 4.3 0.00 0.00 0.00 59 1013.6
20260508232953 75 340 1.7 4.3 0.00 0.00 0.00 59 1013.5
20260508232453 75 332 1.7 6.1 0.00 0.00 0.00 58 1013.6
20260508231953 75 328 2.6 7.0 0.00 0.00 0.00 58 1013.5
20260508231453 75 328 1.7 5.2 0.00 0.00 0.00 58 1013.6
20260508230953 75 339 1.7 4.3 0.00 0.00 0.00 58 1013.6
20260508230453 76 335 1.7 2.6 0.00 0.00 0.00 57 1013.5
20260508225953 76 329 2.6 7.0 0.00 0.00 0.00 55 1013.4
20260508225453 77 323 2.6 5.2 0.00 0.00 0.00 54 1013.6
20260508224953 77 327 2.6 6.1 0.00 0.00 0.00 54 1013.6
20260508224453 77 322 3.5 7.8 0.00 0.00 0.00 54 1013.4
20260508223953 77 322 3.5 7.0 0.00 0.00 0.00 53 1013.4
20260508223453 78 321 4.3 7.0 0.00 0.00 0.00 53 1013.4
20260508222953 78 321 3.5 6.1 0.00 0.00 0.00 53 1013.4
20260508222454 78 320 4.3 8.7 0.00 0.00 0.00 52 1013.4
20260508221953 78 320 4.3 7.8 0.00 0.00 0.00 53 1013.3
20260508221453 77 323 2.6 6.1 0.00 0.00 0.00 53 1013.2
20260508220953 78 326 2.6 6.1 0.00 0.00 0.00 53 1013.4
20260508220453 78 325 3.5 7.0 0.00 0.00 0.00 52 1013.4
20260508215953 78 325 3.5 7.0 0.00 0.00 0.00 51 1013.4
20260508215453 78 322 5.2 8.7 0.00 0.00 0.00 51 1013.4
20260508214953 79 322 5.2 9.6 0.00 0.00 0.00 51 1013.2
20260508214453 79 321 5.2 9.6 0.00 0.00 0.00 51 1013.2
20260508213953 79 321 5.2 8.7 0.00 0.00 0.00 51 1013.2
20260508213454 79 320 5.2 7.8 0.00 0.00 0.00 52 1013.2
20260508212953 79 317 4.3 8.7 0.00 0.00 0.00 52 1013.0
20260508212453 78 316 5.2 7.8 0.00 0.00 0.00 53 1013.0
20260508211953 77 318 2.6 5.2 0.00 0.00 0.00 56 1013.0
20260508211453 77 325 2.6 4.3 0.00 0.00 0.00 56 1012.6
20260508210953 78 317 1.7 4.3 0.00 0.00 0.00 55 1012.5
20260508210453 78 334 0.9 3.5 0.00 0.00 0.00 54 1012.5
20260508205953 79 320 1.7 3.5 0.00 0.00 0.00 53 1012.5
20260508205453 79 330 1.7 5.2 0.00 0.00 0.00 52 1012.4
20260508204953 80 323 1.7 4.3 0.00 0.00 0.00 51 1012.4
20260508204453 81 325 2.6 6.1 0.00 0.00 0.00 48 1012.4
20260508203953 81 320 4.3 9.6 0.00 0.00 0.00 48 1012.5
20260508203453 81 323 5.2 8.7 0.00 0.00 0.00 47 1012.6
20260508202953 82 316 4.3 8.7 0.00 0.00 0.00 47 1012.5
20260508202453 82 318 5.2 10.4 0.00 0.00 0.00 46 1012.5
20260508201953 82 319 5.2 8.7 0.00 0.00 0.00 46 1012.5
20260508201453 82 320 4.3 8.7 0.00 0.00 0.00 46 1012.7
20260508200953 82 318 6.1 10.4 0.00 0.00 0.00 45 1012.7
20260508200453 83 313 4.3 10.4 0.00 0.00 0.00 45 1012.7
20260508195953 83 315 6.1 13.0 0.00 0.00 0.00 45 1012.7
20260508195453 83 318 5.2 9.6 0.00 0.00 0.00 45 1012.6
20260508194953 83 316 6.1 12.2 0.00 0.00 0.00 44 1012.5
20260508194453 83 320 5.2 9.6 0.00 0.00 0.00 44 1012.4
20260508193953 83 312 6.1 10.4 0.00 0.00 0.00 43 1012.4
20260508193453 83 313 6.1 13.9 0.00 0.00 0.00 43 1012.4
20260508192953 83 319 7.0 11.3 0.00 0.00 0.00 43 1012.4
20260508192453 83 316 7.0 13.0 0.00 0.00 0.00 43 1012.4
20260508191953 84 319 6.1 12.2 0.00 0.00 0.00 43 1012.4
20260508191453 84 312 7.0 16.5 0.00 0.00 0.00 42 1012.2
20260508190953 84 313 7.0 12.2 0.00 0.00 0.00 42 1012.2
20260508190453 84 318 7.0 13.0 0.00 0.00 0.00 42 1012.1
20260508185953 84 321 7.8 14.8 0.00 0.00 0.00 42 1012.1
20260508185453 84 319 6.1 16.5 0.00 0.00 0.00 42 1012.2
20260508184953 84 321 7.8 13.9 0.00 0.00 0.00 41 1012.4
20260508184453 85 319 7.8 14.8 0.00 0.00 0.00 41 1012.4
20260508183952 85 314 7.8 18.2 0.00 0.00 0.00 41 1012.3
20260508183453 85 318 8.7 15.6 0.00 0.00 0.00 41 1012.4
20260508182953 85 315 8.7 16.5 0.00 0.00 0.00 40 1012.2
20260508182453 85 314 10.4 20.9 0.00 0.00 0.00 40 1012.3
20260508181953 85 312 7.8 17.4 0.00 0.00 0.00 40 1012.4
20260508181453 85 314 7.0 12.2 0.00 0.00 0.00 40 1012.4
20260508180952 85 327 7.8 17.4 0.00 0.00 0.00 40 1012.3
20260508180453 85 325 9.6 21.7 0.00 0.00 0.00 39 1012.4
20260508175952 86 319 12.2 21.7 0.00 0.00 0.00 39 1012.2
20260508175452 86 318 9.6 20.0 0.00 0.00 0.00 40 1012.3
20260508174953 86 322 7.8 15.6 0.00 0.00 0.00 39 1012.3
20260508174452 86 319 11.3 25.2 0.00 0.00 0.00 38 1012.2
20260508173952 87 321 7.8 16.5 0.00 0.00 0.00 38 1012.1
20260508173453 87 325 7.0 13.9 0.00 0.00 0.00 38 1012.2
20260508172952 87 320 9.6 19.1 0.00 0.00 0.00 38 1012.3
20260508172452 87 319 9.6 18.2 0.00 0.00 0.00 37 1012.3
20260508171953 87 320 9.6 23.5 0.00 0.00 0.00 38 1012.2
20260508171452 87 316 9.6 19.1 0.00 0.00 0.00 37 1012.2
20260508170952 87 321 9.6 18.2 0.00 0.00 0.00 38 1012.3
20260508170453 86 334 7.0 18.2 0.00 0.00 0.00 39 1012.2
20260508165952 85 329 7.8 18.2 0.00 0.00 0.00 42 1012.4
20260508165452 86 324 7.8 22.6 0.00 0.00 0.00 41 1012.4
20260508164953 86 331 7.8 20.0 0.00 0.00 0.00 40 1012.4
20260508164452 86 325 7.8 23.5 0.00 0.00 0.00 40 1012.4
20260508163952 85 330 7.8 16.5 0.00 0.00 0.00 41 1012.4
20260508163452 85 333 7.0 19.1 0.00 0.00 0.00 41 1012.6
20260508162952 85 330 7.0 18.2 0.00 0.00 0.00 40 1012.6
20260508162452 86 336 8.7 22.6 0.00 0.00 0.00 39 1012.8